Regional Weather Roundup
Issued by NWS Cleveland, OH

Home | Current Version | Previous Version | Graphics & Text | Print | Product List | Glossary On
Versions: 1 2 3 4 5 6 7 8 9 10 11 12 13 14 15 16 17 18 19 20 21 22 23 24 25 26 27 28 29 30 31 32 33 34 35 36 37 38 39 40 41 42 43 44 45 46 47 48 49 50
744
ASUS41 KCLE 270402
RWRCLE
OHIO REGIONAL WEATHER ROUNDUP
NATIONAL WEATHER SERVICE CLEVELAND, OH
1200 AM EDT SAT AUG 27 2016

NOTE: "FAIR" INDICATES FEW OR NO CLOUDS BELOW 12,000 FEET WITH NO
SIGNIFICANT WEATHER AND/OR OBSTRUCTIONS TO VISIBILITY.

OHZ001>008-015>018-024>027-034-035-043-044-270500-
   NORTHWEST OHIO

CITY           SKY/WX    TMP DP  RH WIND       PRES   REMARKS
DEFIANCE       PTCLDY    73  66  78 CALM      30.14S
FINDLAY        CLOUDY    75  63  66 E7        30.13F
TOLEDO EXPRESS PTCLDY    69  68  96 CALM      30.14F
TOLEDO EXEC    CLOUDY    73  67  81 E3        30.15F
LIMA           CLOUDY    70  69  97 E6        30.14F
$$

OHZ009>014-019>023-028>033-038-089-270500-
   NORTHEAST OHIO

CITY           SKY/WX    TMP DP  RH WIND       PRES   REMARKS
CLE-HOPKINS    CLOUDY    71  60  68 CALM      30.19S
CLE-LAKEFRONT  CLOUDY    74  62  66 SE3       30.16S
CUY CO. ARPT   NOT AVBL
LORAIN-ELYRIA  PTCLDY    64  58  80 CALM      30.17F
ASHTABULA      CLEAR     61  61 100 CALM      30.19S
AKRON-CANTON   PTCLDY    69  58  67 NE5       30.19R
WOOSTER        PTCLDY    66  60  81 CALM      30.18F
MANSFIELD      PTCLDY    71  56  58 NE5       30.18F
YOUNGSTOWN     PTCLDY    65  62  90 E5        30.19S
$$

OHZ042-051>053-060>062-070>072-077>081-270500-
  SOUTHWEST OHIO

CITY           SKY/WX    TMP DP  RH WIND       PRES   REMARKS
CINC-COVINGTON CLOUDY    76  71  85 N3        30.12F
CINC-LUNKEN    NOT AVBL
HAMILTON       PTCLDY    71  69  93 CALM      30.12F
DAYTON         CLOUDY    73  70  90 CALM      30.15R
WRIGHT-PAT AFB NOT AVBL
DAYTON GENERAL CLEAR     72  69  90 NE6       30.12F
WILMINGTON     CLEAR     75  72  90 CALM      30.12F
$$

OHZ036-037-039>041-045>050-054>059-063>069-073>076-082>088-270500-
  CENTRAL AND SOUTHEAST OHIO

CITY           SKY/WX    TMP DP  RH WIND       PRES   REMARKS
COLUMBUS       PTCLDY    75  68  78 NE5       30.13F
OSU AIRPORT    PTCLDY    73  69  87 E6        30.13F
BOLTON FIELD   CLEAR     73  69  86 E5        30.13F
RICKENBACK AFB NOT AVBL
NEWARK         CLEAR     73  70  90 CALM      30.14F
MARION         CLOUDY    71  63  75 E5        30.16F
LANCASTER      CLEAR     72  71  97 CALM      30.14F
ZANESVILLE     CLEAR     73  70  90 CALM      30.15F
NEW PHILLY     CLEAR     69  63  81 CALM      30.17F
$$




USA.gov is the U.S. government's official web portal to all federal, state and local government web resources and services.